Location: Buckeye Ditch
(40.9104°N, 122.9517°W)
Time: 23:35:58
(UTC+00:00)

Transit 2A - Pass Details

Date: 20 May 2025
Orbit: 599 x 947 km, 66.7° (Epoch: 20 June)

Event Time Altitude Azimuth Distance (km) Brightness Sun altitude
Rises 00:34:00 0° 324° (NW) 2,896 9.5 30.5°
Reaches altitude 10° 00:36:15 10° 319° (NW) 2,015 8.9 30.1°
Maximum altitude 00:40:36 48° 245° (WSW) 868 7.7 29.3°
Drops below altitude 10° 00:45:17 10° 172° (S) 2,170 8.3 28.4°
Sets 00:47:48 0° 166° (SSE) 3,144 9.0 27.9°
